Orbital Elements at Epoch 2459000.5 (2020-May-31.0) TDB
Reference: JPL 56 (heliocentric ecliptic J2000)
Element | Value | Uncertainty (1-sigma) | Units |
e | .5132332478753686 | 2.3602e-08 | |
a | 2.061153170554603 | 8.6885e-09 | au |
q | 1.00330083446225 | 4.9878e-08 | au |
i | 10.76914560360934 | 1.0342e-05 | deg |
node | 290.9659992677483 | 8.3995e-06 | deg |
peri | 36.11770632176295 | 1.7462e-05 | deg |
M | 354.7538724516737 | 8.5844e-06 | deg |
tp | 2459016.250711309274 (2020-Jun-15.75071131) | 2.5862e-05 | TDB |
period | 1080.846018154416 2.96 | 6.8342e-06 1.871e-08 | d yr |
n | .3330724210047175 | 2.106e-09 | deg/d |
Q | 3.119005506646956 | 1.3148e-08 | au |
|
| | Orbit Determination Parameters
Additional Information
|